• In Uzbekistan
  • List of Countries
  • For 7 days
  • Water Temperature
  • Satellite Maps
  • Weather Map
  • Weather Widgets
  • user-avatar
    Login

    Hourly Weather Petalcingo

    Today, 20 April, Friday

    Time Temperature Precipitation Wind Pressure Humidity
    00:00 +15°C° 0 mm 1 mps 640 mmHg 89%
    01:00 +15°C° 0.2 mm 1 mps 640 mmHg 89%
    02:00 +14°C° 0.2 mm 1 mps 639 mmHg 88%
    03:00 +14°C° 0.2 mm 1 mps 639 mmHg 88%
    04:00 +14°C° 0 mm 1 mps 639 mmHg 88%
    05:00 +14°C° 0 mm 1 mps 639 mmHg 87%
    06:00 +14°C° 0 mm 1 mps 639 mmHg 86%
    07:00 +16°C° 0 mm 1 mps 640 mmHg 76%
    08:00 +19°C° 0 mm 1 mps 641 mmHg 67%
    09:00 +22°C° 0 mm 1 mps 642 mmHg 58%
    10:00 +23°C° 0 mm 1 mps 642 mmHg 53%
    11:00 +25°C° 0 mm 2 mps 642 mmHg 49%
    12:00 +26°C° 0 mm 2 mps 642 mmHg 44%
    13:00 +26°C° 0 mm 2 mps 642 mmHg 45%
    14:00 +26°C° 0 mm 2 mps 641 mmHg 47%
    15:00 +25°C° 0 mm 2 mps 641 mmHg 48%
    16:00 +24°C° 0.1 mm 2 mps 640 mmHg 56%
    17:00 +22°C° 0.1 mm 1 mps 640 mmHg 63%
    18:00 +21°C° 0.1 mm 1 mps 639 mmHg 71%
    19:00 +20°C° 0.2 mm 1 mps 640 mmHg 75%
    20:00 +19°C° 0.2 mm 1 mps 640 mmHg 79%
    21:00 +16°C° 0.2 mm 1 mps 640 mmHg 83%
    22:00 +16°C° 0.2 mm 1 mps 640 mmHg 83%
    23:00 +16°C° 0.2 mm 1 mps 640 mmHg 84%

    Tomorrow, 21 April, Saturday

    Time Temperature Precipitation Wind Pressure Humidity
    00:00 +16°C° 0.2 mm 1 mps 640 mmHg 84%
    01:00 +15°C° 0 mm 1 mps 639 mmHg 84%
    02:00 +15°C° 0 mm 1 mps 639 mmHg 85%
    03:00 +14°C° 0 mm 1 mps 638 mmHg 85%
    04:00 +14°C° 0 mm 1 mps 638 mmHg 84%
    05:00 +14°C° 0 mm 1 mps 638 mmHg 83%
    06:00 +14°C° 0 mm 1 mps 638 mmHg 83%
    07:00 +18°C° 0 mm 1 mps 639 mmHg 73%
    08:00 +20°C° 0 mm 1 mps 640 mmHg 64%
    09:00 +23°C° 0 mm 1 mps 641 mmHg 54%
    10:00 +24°C° 0 mm 1 mps 641 mmHg 50%
    11:00 +26°C° 0 mm 2 mps 641 mmHg 46%
    12:00 +28°C° 0 mm 2 mps 641 mmHg 42%
    13:00 +27°C° 0 mm 2 mps 640 mmHg 43%
    14:00 +27°C° 0 mm 2 mps 640 mmHg 44%
    15:00 +27°C° 0 mm 2 mps 639 mmHg 45%
    16:00 +25°C° 0.1 mm 2 mps 639 mmHg 53%
    17:00 +24°C° 0.1 mm 1 mps 638 mmHg 60%
    18:00 +22°C° 0.1 mm 1 mps 638 mmHg 68%
    19:00 +21°C° 0.1 mm 1 mps 638 mmHg 72%
    20:00 +20°C° 0.1 mm 1 mps 638 mmHg 75%
    21:00 +18°C° 0.1 mm 2 mps 638 mmHg 79%
    22:00 +18°C° 0 mm 2 mps 638 mmHg 79%
    23:00 +18°C° 0 mm 1 mps 638 mmHg 79%

    Day after tomorrow, 22 April, Sunday

    Time Temperature Precipitation Wind Pressure Humidity
    00:00 +18°C° 0 mm 1 mps 638 mmHg 79%
    01:00 +18°C° 0 mm 1 mps 638 mmHg 80%
    02:00 +16°C° 0 mm 1 mps 637 mmHg 80%
    03:00 +16°C° 0 mm 1 mps 637 mmHg 80%
    04:00 +16°C° 0 mm 1 mps 637 mmHg 81%
    05:00 +16°C° 0 mm 1 mps 637 mmHg 81%
    06:00 +15°C° 0 mm 1 mps 637 mmHg 82%
    07:00 +19°C° 0 mm 1 mps 638 mmHg 73%
    08:00 +22°C° 0 mm 1 mps 640 mmHg 64%
    09:00 +24°C° 0 mm 1 mps 641 mmHg 55%
    10:00 +26°C° 0 mm 1 mps 641 mmHg 51%
    11:00 +27°C° 0 mm 1 mps 641 mmHg 48%
    12:00 +28°C° 0 mm 1 mps 641 mmHg 44%
    13:00 +28°C° 0.1 mm 2 mps 640 mmHg 46%
    14:00 +28°C° 0.1 mm 2 mps 640 mmHg 47%
    15:00 +28°C° 0.1 mm 2 mps 639 mmHg 48%
    16:00 +26°C° 0.4 mm 1 mps 638 mmHg 55%
    17:00 +24°C° 0.4 mm 1 mps 638 mmHg 62%
    18:00 +21°C° 0.4 mm 0 mps 638 mmHg 69%
    19:00 +22°C° 0.2 mm 1 mps 638 mmHg 73%
    20:00 +20°C° 0.2 mm 1 mps 638 mmHg 77%
    21:00 +19°C° 0.2 mm 1 mps 638 mmHg 81%
    22:00 +19°C° 0.1 mm 1 mps 639 mmHg 81%
    23:00 +19°C° 0.1 mm 1 mps 639 mmHg 81%

    23 April, Monday

    Time Temperature Precipitation Wind Pressure Humidity
    00:00 +18°C° 0.1 mm 1 mps 639 mmHg 81%
    01:00 +18°C° 0 mm 1 mps 638 mmHg 82%
    02:00 +18°C° 0 mm 1 mps 638 mmHg 82%
    03:00 +16°C° 0 mm 1 mps 637 mmHg 83%
    04:00 +16°C° 0 mm 1 mps 638 mmHg 83%
    05:00 +16°C° 0 mm 1 mps 638 mmHg 84%
    06:00 +16°C° 0 mm 1 mps 638 mmHg 84%
    07:00 +19°C° 0 mm 1 mps 639 mmHg 75%
    08:00 +21°C° 0 mm 1 mps 640 mmHg 67%
    09:00 +24°C° 0 mm 1 mps 641 mmHg 59%
    10:00 +25°C° 0.1 mm 1 mps 642 mmHg 56%
    11:00 +26°C° 0.1 mm 2 mps 642 mmHg 53%
    12:00 +27°C° 0.1 mm 2 mps 642 mmHg 51%
    13:00 +27°C° 1 mm 2 mps 641 mmHg 54%
    14:00 +26°C° 1 mm 2 mps 640 mmHg 57%
    15:00 +26°C° 1 mm 2 mps 639 mmHg 60%
    16:00 +24°C° 1.4 mm 1 mps 639 mmHg 66%
    17:00 +23°C° 1.4 mm 1 mps 639 mmHg 72%
    18:00 +21°C° 1.4 mm 1 mps 638 mmHg 79%
    19:00 +20°C° 0.9 mm 1 mps 639 mmHg 82%
    20:00 +19°C° 0.9 mm 1 mps 639 mmHg 85%
    21:00 +18°C° 0.9 mm 1 mps 639 mmHg 89%
    22:00 +18°C° 0.4 mm 1 mps 639 mmHg 89%
    23:00 +18°C° 0.4 mm 1 mps 639 mmHg 89%

    24 April, Tuesday

    Time Temperature Precipitation Wind Pressure Humidity
    00:00 +16°C° 0.4 mm 1 mps 639 mmHg 89%
    01:00 +16°C° 0.1 mm 1 mps 639 mmHg 89%
    02:00 +16°C° 0.1 mm 1 mps 638 mmHg 88%
    03:00 +16°C° 0.1 mm 1 mps 638 mmHg 88%
    04:00 +16°C° 0 mm 1 mps 638 mmHg 88%
    05:00 +16°C° 0 mm 1 mps 638 mmHg 88%
    06:00 +15°C° 0 mm 1 mps 638 mmHg 88%
    07:00 +19°C° 0 mm 1 mps 639 mmHg 80%
    08:00 +21°C° 0 mm 1 mps 641 mmHg 71%
    09:00 +23°C° 0 mm 1 mps 642 mmHg 63%
    10:00 +24°C° 0 mm 1 mps 642 mmHg 60%
    11:00 +25°C° 0 mm 1 mps 642 mmHg 57%
    12:00 +26°C° 0 mm 2 mps 642 mmHg 54%
    13:00 +26°C° 0.8 mm 2 mps 641 mmHg 58%
    14:00 +25°C° 0.8 mm 2 mps 640 mmHg 61%
    15:00 +25°C° 0.8 mm 1 mps 639 mmHg 65%
    16:00 +23°C° 1.1 mm 1 mps 639 mmHg 71%
    17:00 +22°C° 1.1 mm 1 mps 639 mmHg 77%
    18:00 +20°C° 1.1 mm 1 mps 639 mmHg 83%
    19:00 +19°C° 0.5 mm 1 mps 639 mmHg 86%
    20:00 +18°C° 0.5 mm 1 mps 639 mmHg 89%
    21:00 +18°C° 0.5 mm 1 mps 640 mmHg 92%
    22:00 +16°C° 0.1 mm 1 mps 640 mmHg 92%
    23:00 +16°C° 0.1 mm 1 mps 640 mmHg 92%

    25 April, Wednesday

    Time Temperature Precipitation Wind Pressure Humidity
    00:00 +15°C° 0.1 mm 0 mps 640 mmHg 92%
    01:00 +15°C° 0.4 mm 0 mps 639 mmHg 92%
    02:00 +15°C° 0.4 mm 0 mps 639 mmHg 92%
    03:00 +15°C° 0.4 mm 0 mps 639 mmHg 92%
    04:00 +15°C° 0.1 mm 1 mps 639 mmHg 93%
    05:00 +15°C° 0.1 mm 1 mps 639 mmHg 93%
    06:00 +15°C° 0.1 mm 1 mps 639 mmHg 93%
    07:00 +18°C° 0.1 mm 1 mps 640 mmHg 86%
    08:00 +19°C° 0.1 mm 1 mps 641 mmHg 80%
    09:00 +21°C° 0.1 mm 1 mps 642 mmHg 73%
    10:00 +23°C° 0.1 mm 1 mps 642 mmHg 67%
    11:00 +24°C° 0.1 mm 1 mps 642 mmHg 61%
    12:00 +26°C° 0.1 mm 2 mps 642 mmHg 54%
    13:00 +25°C° 0.6 mm 2 mps 641 mmHg 58%
    14:00 +24°C° 0.6 mm 2 mps 640 mmHg 62%
    15:00 +24°C° 0.6 mm 2 mps 639 mmHg 67%
    16:00 +21°C° 1 mm 2 mps 639 mmHg 73%
    17:00 +21°C° 1 mm 1 mps 639 mmHg 80%
    18:00 +20°C° 1 mm 1 mps 639 mmHg 86%
    19:00 +19°C° 0.6 mm 1 mps 639 mmHg 89%
    20:00 +18°C° 0.6 mm 1 mps 639 mmHg 91%
    21:00 +16°C° 0.6 mm 1 mps 640 mmHg 93%
    22:00 +15°C° 0.1 mm 0 mps 639 mmHg 94%
    23:00 +15°C° 0.1 mm 0 mps 639 mmHg 94%
    Show more